Weather History for KHFJ - January, 2013

Change the Weather History Date:

Monday, January 28, 2013

  Actual Average (KJLN) Record (KJLN)
Temperature  
Mean Temperature 65 °F 36 °F  
Max Temperature 71 °F 46 °F 76 °F (2015)
Min Temperature 59 °F 26 °F -2 °F (1948)
Degree Days  
Heating Degree Days 0 29  
Month to date heating degree days 838  
Since 1 July heating degree days 2455  
Cooling Degree Days 0 0  
Month to date cooling degree days 0  
Year to date cooling degree days 0  
Growing Degree Days 15 (Base 50)    
Moisture  
Dew Point 58 °F    
Average Humidity 78    
Maximum Humidity 88    
Minimum Humidity 60    
Precipitation  
Precipitation 0.00 in 0.07 in 1.95 in (2001)
Month to date precipitation 1.83  
Year to date precipitation 1.83  
Sea Level Pressure  
Sea Level Pressure 29.89 in    
Wind  
Wind Speed 18 mph (South)    
Max Wind Speed 26 mph    
Max Gust Speed 34 mph    
Visibility 10 miles    
Events      
T = Trace of Precipitation, MM = Missing Value Source: NWS Daily Summary

Daily Weather History Graph

Daily Weather History Graph

Search for Another Location

Airport or City:

Trip Planner

Search our weather history database for the weather conditions in past years. The results will help you decide how hot, cold, wet, or windy it might be!

Date:

Astronomy

Jan. 28, 2013 Rise Set
Actual Time 7:21 AM CST 5:37 PM CST
Civil Twilight 6:53 AM CST 6:04 PM CST
Nautical Twilight 6:22 AM CST 6:36 PM CST
Astronomical Twilight 5:51 AM CST 7:06 PM CST
Moon 7:28 PM CST (1/28) 7:50 AM CST (1/28)
Length of Visible Light 11h 11m
Length of Day
10h 16m
Full, 98% of the Moon is Illuminated
Jan 28
Full
Feb 3
Last Quarter
Feb 10
New
Feb 17
First Quarter
Feb 25
Full

Hourly Weather History & Observations

Time (CST) Temp. Dew Point Humidity Pressure Visibility Wind Dir Wind Speed Gust Speed Precip Events Conditions
12:15 AM 59.0 °F 53.6 °F 82% 29.92 in 10.0 mi South 15.0 mph 19.6 mph N/A   Overcast
12:35 AM 59.0 °F 53.6 °F 82% 29.92 in 10.0 mi South 13.8 mph 19.6 mph N/A   Mostly Cloudy
12:55 AM 59.0 °F 53.6 °F 82% 29.92 in 10.0 mi South 16.1 mph 19.6 mph N/A   Overcast
1:15 AM 59.0 °F 55.4 °F 88% 29.92 in 10.0 mi South 18.4 mph 25.3 mph N/A   Overcast
1:35 AM 59.0 °F 55.4 °F 88% 29.92 in 10.0 mi South 19.6 mph 25.3 mph N/A   Overcast
1:55 AM 60.8 °F 55.4 °F 82% 29.92 in 10.0 mi South 20.7 mph 26.5 mph N/A   Overcast
2:15 AM 60.8 °F 55.4 °F 82% 29.92 in 10.0 mi South 21.9 mph 27.6 mph N/A   Overcast
2:55 AM 60.8 °F 55.4 °F 82% 29.92 in 10.0 mi South 16.1 mph 21.9 mph N/A   Overcast
3:15 AM 60.8 °F 57.2 °F 88% 29.91 in 10.0 mi South 17.3 mph 25.3 mph N/A   Overcast
3:35 AM 62.6 °F 57.2 °F 82% 29.91 in 10.0 mi South 18.4 mph 27.6 mph N/A   Overcast
4:15 AM 62.6 °F 59.0 °F 88% 29.91 in 10.0 mi SSW 19.6 mph 26.5 mph N/A   Overcast
4:35 AM 62.6 °F 59.0 °F 88% 29.91 in 10.0 mi SSW 17.3 mph 27.6 mph N/A   Overcast
4:55 AM 62.6 °F 59.0 °F 88% 29.91 in 10.0 mi South 18.4 mph 26.5 mph N/A   Overcast
5:15 AM 62.6 °F 59.0 °F 88% 29.91 in 10.0 mi South 23.0 mph 27.6 mph N/A   Overcast
5:55 AM 62.6 °F 59.0 °F 88% 29.91 in 10.0 mi South 19.6 mph 23.0 mph N/A   Overcast
6:15 AM 62.6 °F 59.0 °F 88% 29.91 in 10.0 mi South 19.6 mph 26.5 mph N/A   Overcast
6:35 AM 62.6 °F 59.0 °F 88% 29.92 in 10.0 mi South 18.4 mph 27.6 mph N/A   Overcast
6:55 AM 62.6 °F 59.0 °F 88% 29.92 in 10.0 mi SSW 20.7 mph 27.6 mph N/A   Overcast
7:15 AM 64.4 °F 59.0 °F 83% 29.92 in 10.0 mi South 19.6 mph 28.8 mph N/A   Overcast
7:35 AM 62.6 °F 59.0 °F 88% 29.93 in 10.0 mi SSW 20.7 mph 26.5 mph N/A   Overcast
7:55 AM 64.4 °F 59.0 °F 83% 29.93 in 10.0 mi SSW 16.1 mph 25.3 mph N/A   Overcast
8:15 AM 64.4 °F 59.0 °F 83% 29.94 in 10.0 mi SSW 16.1 mph - N/A   Overcast
8:35 AM 64.4 °F 59.0 °F 83% 29.94 in 10.0 mi SSW 16.1 mph 24.2 mph N/A   Overcast
8:55 AM 64.4 °F 59.0 °F 83% 29.94 in 10.0 mi SSW 15.0 mph 19.6 mph N/A   Overcast
9:15 AM 64.4 °F 59.0 °F 83% 29.94 in 10.0 mi SSW 20.7 mph - N/A   Overcast
9:35 AM 64.4 °F 59.0 °F 83% 29.94 in 10.0 mi SSW 18.4 mph 27.6 mph N/A   Overcast
9:55 AM 66.2 °F 60.8 °F 83% 29.94 in 10.0 mi SSW 19.6 mph 32.2 mph N/A   Overcast
10:15 AM 68.0 °F 59.0 °F 73% 29.95 in 10.0 mi SSW 20.7 mph 29.9 mph N/A   Overcast
10:35 AM 68.0 °F 59.0 °F 73% 29.95 in 10.0 mi SSW 17.3 mph 26.5 mph N/A   Overcast
10:55 AM 68.0 °F 59.0 °F 73% 29.95 in 10.0 mi South 18.4 mph 25.3 mph N/A   Overcast
11:15 AM 68.0 °F 59.0 °F 73% 29.95 in 10.0 mi SSW 20.7 mph 32.2 mph N/A   Overcast
11:35 AM 68.0 °F 59.0 °F 73% 29.94 in 10.0 mi South 20.7 mph 26.5 mph N/A   Overcast
11:55 AM 68.0 °F 59.0 °F 73% 29.94 in 10.0 mi South 18.4 mph 26.5 mph N/A   Overcast
12:15 PM 69.8 °F 59.0 °F 68% 29.93 in 10.0 mi SSW 20.7 mph 28.8 mph N/A   Overcast
12:35 PM 69.8 °F 59.0 °F 68% 29.92 in 10.0 mi SSW 26.5 mph 29.9 mph N/A   Overcast
12:55 PM 69.8 °F 59.0 °F 68% 29.91 in 10.0 mi SSW 21.9 mph 27.6 mph N/A   Overcast
1:15 PM 69.8 °F 59.0 °F 68% 29.90 in 10.0 mi South 17.3 mph 29.9 mph N/A   Overcast
1:35 PM 71.6 °F 59.0 °F 64% 29.88 in 10.0 mi SSW 20.7 mph 27.6 mph N/A   Overcast
1:55 PM 71.6 °F 57.2 °F 60% 29.88 in 10.0 mi South 24.2 mph 28.8 mph N/A   Overcast
2:15 PM 71.6 °F 57.2 °F 60% 29.88 in 10.0 mi South 19.6 mph 29.9 mph N/A   Overcast
2:35 PM 69.8 °F 57.2 °F 64% 29.87 in 10.0 mi SSW 20.7 mph 25.3 mph N/A   Overcast
2:55 PM 71.6 °F 57.2 °F 60% 29.87 in 10.0 mi SSW 20.7 mph 29.9 mph N/A   Mostly Cloudy
3:15 PM 71.6 °F 57.2 °F 60% 29.87 in 10.0 mi SSW 21.9 mph 32.2 mph N/A   Overcast
3:35 PM 69.8 °F 57.2 °F 64% 29.88 in 10.0 mi SSW 21.9 mph 31.1 mph N/A   Overcast
3:55 PM 69.8 °F 57.2 °F 64% 29.87 in 10.0 mi SSW 17.3 mph 26.5 mph N/A   Overcast
4:15 PM 69.8 °F 57.2 °F 64% 29.87 in 10.0 mi South 18.4 mph 21.9 mph N/A   Overcast
4:35 PM 68.0 °F 59.0 °F 73% 29.86 in 10.0 mi South 16.1 mph 21.9 mph N/A   Overcast
5:15 PM 68.0 °F 59.0 °F 73% 29.85 in 10.0 mi South 12.7 mph 21.9 mph N/A   Overcast
5:35 PM 68.0 °F 59.0 °F 73% 29.84 in 10.0 mi South 19.6 mph 24.2 mph N/A   Overcast
5:55 PM 68.0 °F 57.2 °F 68% 29.84 in 10.0 mi SSE 12.7 mph 17.3 mph N/A   Overcast
6:15 PM 68.0 °F 59.0 °F 73% 29.84 in 10.0 mi SSE 15.0 mph 20.7 mph N/A   Overcast
6:35 PM 66.2 °F 59.0 °F 78% 29.84 in 10.0 mi SSE 13.8 mph - N/A   Overcast
6:55 PM 66.2 °F 59.0 °F 78% 29.84 in 10.0 mi SSE 17.3 mph 25.3 mph N/A   Overcast
7:15 PM 66.2 °F 59.0 °F 78% 29.84 in 10.0 mi South 18.4 mph 24.2 mph N/A   Overcast
7:35 PM 66.2 °F 59.0 °F 78% 29.84 in 10.0 mi South 17.3 mph 25.3 mph N/A   Overcast
7:55 PM 66.2 °F 59.0 °F 78% 29.83 in 10.0 mi South 19.6 mph 25.3 mph N/A   Overcast
8:15 PM 66.2 °F 59.0 °F 78% 29.83 in 10.0 mi South 21.9 mph 27.6 mph N/A   Scattered Clouds
8:35 PM 66.2 °F 59.0 °F 78% 29.83 in 10.0 mi South 20.7 mph 31.1 mph N/A   Mostly Cloudy
8:55 PM 66.2 °F 59.0 °F 78% 29.82 in 10.0 mi South 24.2 mph 31.1 mph N/A   Mostly Cloudy
9:15 PM 66.2 °F 59.0 °F 78% 29.81 in 10.0 mi South 24.2 mph 34.5 mph N/A   Mostly Cloudy
9:35 PM 66.2 °F 59.0 °F 78% 29.81 in 10.0 mi South 23.0 mph 29.9 mph N/A   Scattered Clouds
9:55 PM 64.4 °F 59.0 °F 83% 29.81 in 10.0 mi South 19.6 mph 27.6 mph N/A   Scattered Clouds
10:15 PM 64.4 °F 59.0 °F 83% 29.81 in 10.0 mi South 17.3 mph 28.8 mph N/A   Scattered Clouds
10:35 PM 64.4 °F 59.0 °F 83% 29.81 in 10.0 mi SSE 18.4 mph 25.3 mph N/A   Scattered Clouds
10:55 PM 64.4 °F 59.0 °F 83% 29.81 in 10.0 mi SSE 17.3 mph 25.3 mph N/A   Clear
11:15 PM 64.4 °F 59.0 °F 83% 29.82 in 10.0 mi South 18.4 mph 21.9 mph N/A   Scattered Clouds
11:35 PM 64.4 °F 59.0 °F 83% 29.81 in 10.0 mi South 21.9 mph 26.5 mph N/A   Overcast
11:55 PM 64.4 °F 59.0 °F 83% 29.81 in 10.0 mi South 18.4 mph 26.5 mph N/A   Overcast